This is the latest recevied weather packets stored in our database for station/object W2GRK-15. If no packets are shown the sender has not sent any weather packets the latest 10 day(s).
| Time | Temp. | Humidity | Pressure | Rain* | Wind** | Luminosity | Snow |
|---|---|---|---|---|---|---|---|
| 1777327829 | 17.22° C | 47% | 1024.1 hPa | 0 mm | - | 31 W/m² | - |
| 1777327765 | 17.22° C | 47% | 1024.1 hPa | 0 mm | - | 31 W/m² | - |
| 1777327636 | 17.22° C | 47% | 1024 hPa | 0 mm | - | 31 W/m² | - |
| 1777327543 | 17.22° C | 48% | 1024.1 hPa | 0 mm | - | 31 W/m² | - |
| 1777327479 | 17.22° C | 47% | 1024.1 hPa | 0 mm | - | 31 W/m² | - |
| 1777327282 | 17.22° C | 47% | 1024.1 hPa | 0 mm | - | 32 W/m² | - |
| 1777326976 | 17.78° C | 46% | 1024.2 hPa | 0 mm | - | 32 W/m² | - |
| 1777326863 | 17.78° C | 46% | 1024.1 hPa | 0 mm | - | 33 W/m² | - |
| 1777326203 | 18.33° C | 44% | 1024.2 hPa | 0 mm | - | 35 W/m² | - |
| 1777326025 | 18.33° C | 45% | 1024.2 hPa | 0 mm | - | 35 W/m² | - |
| 1777325478 | 18.33° C | 43% | 1024.3 hPa | 0 mm | - | 36 W/m² | - |
| 1777325365 | 18.33° C | 43% | 1024.3 hPa | 0 mm | - | 37 W/m² | - |
| 1777325188 | 18.33° C | 44% | 1024.2 hPa | 0 mm | - | 37 W/m² | - |
| 1777324463 | 18.89° C | 43% | 1024.3 hPa | 0 mm | - | 56 W/m² | - |
| 1777324399 | 19.44° C | 42% | 1024.2 hPa | 0 mm | - | 71 W/m² | - |
| 1777324222 | 18.89° C | 42% | 1024.1 hPa | 0 mm | - | 148 W/m² | - |
| 1777324045 | 19.44° C | 41% | 1024.4 hPa | 0 mm | - | 53 W/m² | - |
| 1777323981 | 19.44° C | 41% | 1024.2 hPa | 0 mm | - | 48 W/m² | - |
| 1777323385 | 19.44° C | 42% | 1024.2 hPa | 0 mm | - | 51 W/m² | - |
| 1777323276 | 19.44° C | 41% | 1024.1 hPa | 0 mm | - | 45 W/m² | - |
| 1777322902 | 19.44° C | 42% | 1024 hPa | 0 mm | - | 44 W/m² | - |
| 1777322419 | 20° C | 39% | 1024.1 hPa | 0 mm | - | 46 W/m² | - |
| 1777322129 | 20° C | 39% | 1024.3 hPa | 0 mm | - | 73 W/m² | - |
| 1777321759 | 20.56° C | 38% | 1024.1 hPa | 0 mm | - | 156 W/m² | - |
| 1777321227 | 20.56° C | 37% | 1024.1 hPa | 0 mm | - | 358 W/m² | - |
* Rain latest hour (hover to see other rain measurements)
** Current wind speed in m/s (hover to see current wind gust speed)